TimeGMT,TemperatureF,Dew PointF,Humidity,Sea Level PressureIn,VisibilityMPH,Wind Direction,Wind SpeedMPH,Gust SpeedMPH,PrecipitationIn,Events,Conditions,WindDirDegrees,DateUTC
6:20 AM,33.8,32.0,93,29.92,6.2,ENE,2.3,-,N/A,,Scattered Clouds,70,2012-11-12 06:20:00
6:50 AM,33.8,32.0,93,29.92,6.2,SSE,1.2,-,N/A,,Partly Cloudy,160,2012-11-12 06:50:00
7:20 AM,33.8,32.0,93,29.92,6.2,NW,1.2,-,N/A,,Partly Cloudy,320,2012-11-12 07:20:00
7:50 AM,35.6,33.8,93,29.92,6.2,East,2.3,-,N/A,,Partly Cloudy,80,2012-11-12 07:50:00
8:20 AM,37.4,33.8,87,29.92,6.2,ENE,4.6,-,N/A,,Partly Cloudy,70,2012-11-12 08:20:00
8:50 AM,37.4,35.6,93,29.92,6.2,East,4.6,-,N/A,,Scattered Clouds,80,2012-11-12 08:50:00
9:20 AM,39.2,35.6,87,29.89,6.2,East,4.6,-,N/A,,Scattered Clouds,80,2012-11-12 09:20:00
9:50 AM,41.0,37.4,87,29.89,6.2,East,5.8,-,N/A,,Scattered Clouds,80,2012-11-12 09:50:00
10:20 AM,41.0,37.4,87,29.89,6.2,ENE,5.8,-,N/A,,Scattered Clouds,70,2012-11-12 10:20:00
10:50 AM,42.8,39.2,87,29.89,6.2,East,6.9,-,N/A,Rain,Light Rain,80,2012-11-12 10:50:00
11:20 AM,42.8,39.2,87,29.86,6.2,ENE,5.8,-,N/A,Rain,Light Rain,70,2012-11-12 11:20:00
11:50 AM,42.8,41.0,93,29.86,6.2,ENE,5.8,-,N/A,Rain,Light Rain,70,2012-11-12 11:50:00
12:20 PM,42.8,41.0,93,29.83,6.2,East,6.9,-,N/A,Rain,Light Rain,90,2012-11-12 12:20:00
12:50 PM,42.8,41.0,93,29.86,5.6,East,4.6,-,N/A,Rain,Light Rain,80,2012-11-12 12:50:00
1:20 PM,44.6,42.8,93,29.83,5.6,East,3.5,-,N/A,Rain,Light Rain,90,2012-11-12 13:20:00
2:20 PM,44.6,42.8,93,29.83,5.6,ENE,3.5,-,N/A,,Mostly Cloudy,60,2012-11-12 14:20:00
2:50 PM,44.6,42.8,93,29.83,5.6,ENE,2.3,-,N/A,,Mostly Cloudy,70,2012-11-12 14:50:00
3:20 PM,44.6,42.8,93,29.83,5.6,East,2.3,-,N/A,,Mostly Cloudy,80,2012-11-12 15:20:00
3:50 PM,44.6,42.8,93,29.83,4.3,NE,1.2,-,N/A,,Mostly Cloudy,40,2012-11-12 15:50:00
4:20 PM,44.6,42.8,93,29.83,4.3,North,1.2,-,N/A,Rain,Light Rain,360,2012-11-12 16:20:00
4:50 PM,44.6,42.8,93,29.83,4.3,Calm,Calm,-,N/A,Rain,Light Rain,0,2012-11-12 16:50:00
5:20 PM,42.8,41.0,93,29.83,3.7,West,2.3,-,N/A,,Overcast,270,2012-11-12 17:20:00
5:50 PM,41.0,39.2,93,29.83,3.1,West,3.5,-,N/A,Rain,Light Rain,280,2012-11-12 17:50:00
6:20 PM,41.0,39.2,93,29.83,2.5,West,3.5,-,N/A,Rain,Light Rain,280,2012-11-12 18:20:00
6:50 PM,41.0,41.0,100,29.86,0.9,WSW,3.5,-,N/A,Rain,Light Rain,240,2012-11-12 18:50:00
7:20 PM,41.0,39.2,93,29.86,1.1,West,2.3,-,N/A,,Overcast,280,2012-11-12 19:20:00
7:50 PM,41.0,39.2,93,29.86,0.9,West,4.6,-,N/A,,Overcast,260,2012-11-12 19:50:00
8:20 PM,41.0,41.0,100,29.86,0.7,WSW,3.5,-,N/A,,Overcast,250,2012-11-12 20:20:00
8:50 PM,41.0,39.2,93,29.86,2.5,WNW,2.3,-,N/A,,Overcast,300,2012-11-12 20:50:00
9:20 PM,41.0,41.0,100,29.86,2.5,WSW,3.5,-,N/A,,Overcast,250,2012-11-12 21:20:00
9:50 PM,41.0,41.0,100,29.86,2.5,Calm,Calm,-,N/A,,Overcast,0,2012-11-12 21:50:00